Weather History for Creston, IA

Change the Weather History Date:

Monday, November 26, 2012

  Actual Average Record
Temperature  
Mean Temperature 22 °F -  
Max Temperature 33 °F 42 °F 71 °F (1990)
Min Temperature 12 °F 27 °F 4 °F (1993)
Degree Days  
Heating Degree Days 42    
Moisture  
Dew Point 14 °F    
Average Humidity 60    
Maximum Humidity 79    
Minimum Humidity 43    
Precipitation  
Precipitation 0.00 in - - ()
Sea Level Pressure  
Sea Level Pressure 30.31 in    
Wind  
Wind Speed 12 mph (North)    
Max Wind Speed 17 mph    
Max Gust Speed 21 mph    
Visibility 10 miles    
Events Snow    
Averages and records for this station are not official NWS values.
T = Trace of Precipitation, MM = Missing Value Source: NWS Daily Summary

Daily Weather History Graph

Daily Weather History Graph

Search for Another Location

Airport:

Trip Planner

Search our weather history database for the weather conditions in past years. The results will help you decide how hot, cold, wet, or windy it might be!

Date:

Astronomy

Nov. 26, 2012 Rise Set
Actual Time 7:18 AM CST 4:51 PM CST
Civil Twilight 6:47 AM CST 5:21 PM CST
Nautical Twilight 6:14 AM CST 5:55 PM CST
Astronomical Twilight 5:41 AM CST 6:28 PM CST
Moon 3:44 PM CST 5:28 AM CST
Length of Visible Light 10h 33m
Length of Day
9h 33m
Waxing Gibbous, 97% of the Moon is Illuminated
Nov 26
Waxing Gibbous
Nov 28
Full
Dec 6
Last Quarter
Dec 13
New
Dec 19
First Quarter

Hourly Weather History & Observations

Time (CST) Temp. Windchill Dew Point Humidity Pressure Visibility Wind Dir Wind Speed Gust Speed Precip Events Conditions
12:15 AM 32.0 °F 21.6 °F 23.0 °F 69% 30.13 in 10.0 mi NNE 15.0 mph 18.4 mph N/A   Scattered Clouds
12:35 AM 32.0 °F 22.5 °F 23.0 °F 69% 30.13 in 10.0 mi NNE 12.7 mph - N/A   Clear
12:55 AM 33.8 °F 24.3 °F 23.0 °F 65% 30.13 in 10.0 mi NNE 13.8 mph - N/A   Mostly Cloudy
1:15 AM 33.8 °F 23.9 °F 21.2 °F 60% 30.14 in 10.0 mi NNE 15.0 mph - N/A   Overcast
1:35 AM 33.8 °F 24.8 °F 23.0 °F 65% 30.14 in 10.0 mi NNE 12.7 mph - N/A   Overcast
1:55 AM 33.8 °F 24.3 °F 21.2 °F 60% 30.14 in 10.0 mi NNE 13.8 mph - N/A   Overcast
2:15 AM 32.0 °F 22.1 °F 21.2 °F 64% 30.15 in 10.0 mi NNE 13.8 mph - N/A   Overcast
2:35 AM 32.0 °F 21.6 °F 21.2 °F 64% 30.16 in 10.0 mi NNE 15.0 mph - N/A   Overcast
2:55 AM 30.2 °F 18.5 °F 21.2 °F 69% 30.16 in 10.0 mi NE 17.3 mph - N/A   Overcast
3:15 AM 30.2 °F 19.8 °F 21.2 °F 69% 30.17 in 10.0 mi NE 13.8 mph - N/A   Overcast
3:35 AM 30.2 °F 18.9 °F 19.4 °F 64% 30.17 in 10.0 mi NE 16.1 mph - N/A   Mostly Cloudy
3:55 AM 30.2 °F 19.8 °F 19.4 °F 64% 30.16 in 10.0 mi NE 13.8 mph - N/A   Mostly Cloudy
4:15 AM 32.0 °F 21.6 °F 19.4 °F 60% 30.17 in 10.0 mi NE 15.0 mph - N/A   Scattered Clouds
4:55 AM 30.2 °F 20.2 °F 21.2 °F 69% 30.18 in 10.0 mi NE 12.7 mph - N/A   Scattered Clouds
5:15 AM 30.2 °F 20.2 °F 21.2 °F 69% 30.19 in 10.0 mi NE 12.7 mph - N/A   Mostly Cloudy
5:35 AM 30.2 °F 21.9 °F 21.2 °F 69% 30.20 in 10.0 mi NE 9.2 mph - N/A   Overcast
5:55 AM 30.2 °F 20.2 °F 19.4 °F 64% 30.21 in 10.0 mi NNE 12.7 mph 16.1 mph N/A   Overcast
6:15 AM 30.2 °F 21.3 °F 21.2 °F 69% 30.21 in 10.0 mi NE 10.4 mph - N/A   Overcast
6:35 AM 30.2 °F 19.8 °F 19.4 °F 64% 30.22 in 10.0 mi NNE 13.8 mph - N/A   Overcast
6:55 AM 30.2 °F 19.8 °F 21.2 °F 69% 30.23 in 10.0 mi NNE 13.8 mph - N/A   Overcast
7:15 AM 30.2 °F 20.8 °F 19.4 °F 64% 30.24 in 10.0 mi NNE 11.5 mph - N/A   Overcast
7:35 AM 30.2 °F 20.2 °F 19.4 °F 64% 30.25 in 10.0 mi NNE 12.7 mph - N/A   Overcast
7:55 AM 30.2 °F 20.2 °F 19.4 °F 64% 30.28 in 10.0 mi NNE 12.7 mph - N/A   Overcast
8:15 AM 28.4 °F 18.0 °F 17.6 °F 64% 30.28 in 10.0 mi NNE 12.7 mph 18.4 mph N/A   Overcast
8:35 AM 28.4 °F 17.0 °F 15.8 °F 59% 30.29 in 10.0 mi NNE 15.0 mph 20.7 mph N/A   Overcast
8:55 AM 28.4 °F 16.6 °F 15.8 °F 59% 30.29 in 10.0 mi NNE 16.1 mph 20.7 mph N/A   Overcast
9:15 AM 28.4 °F 17.0 °F 15.8 °F 59% 30.32 in 10.0 mi North 15.0 mph - N/A   Overcast
9:35 AM 28.4 °F 17.0 °F 15.8 °F 59% 30.32 in 10.0 mi North 15.0 mph - N/A   Overcast
9:55 AM 30.2 °F 19.3 °F 15.8 °F 55% 30.34 in 10.0 mi North 15.0 mph - N/A   Overcast
10:15 AM 30.2 °F 19.8 °F 15.8 °F 55% 30.35 in 10.0 mi North 13.8 mph - N/A   Overcast
10:35 AM 30.2 °F 20.8 °F 15.8 °F 55% 30.35 in 10.0 mi North 11.5 mph 16.1 mph N/A   Overcast
10:55 AM 30.2 °F 20.8 °F 15.8 °F 55% 30.37 in 10.0 mi North 11.5 mph - N/A   Overcast
11:15 AM 30.2 °F 20.2 °F 15.8 °F 55% 30.37 in 10.0 mi North 12.7 mph - N/A   Overcast
11:35 AM 30.2 °F 19.8 °F 15.8 °F 55% 30.36 in 7.0 mi North 13.8 mph - N/A Snow Light Snow
11:55 AM 30.2 °F 21.3 °F 17.6 °F 60% 30.36 in 10.0 mi North 10.4 mph - N/A Snow Light Snow
12:15 PM 30.2 °F 19.3 °F 17.6 °F 60% 30.37 in 10.0 mi North 15.0 mph - N/A   Scattered Clouds
12:35 PM 30.2 °F 20.2 °F 17.6 °F 60% 30.36 in 10.0 mi North 12.7 mph - N/A   Scattered Clouds
12:55 PM 30.2 °F 21.3 °F 15.8 °F 55% 30.37 in 10.0 mi North 10.4 mph 18.4 mph N/A   Mostly Cloudy
1:15 PM 28.4 °F 16.6 °F 14.0 °F 55% 30.37 in 10.0 mi North 16.1 mph - N/A   Mostly Cloudy
1:35 PM 28.4 °F 17.0 °F 12.2 °F 51% 30.37 in 10.0 mi North 15.0 mph 19.6 mph N/A   Mostly Cloudy
1:55 PM 28.4 °F 18.0 °F 12.2 °F 51% 30.36 in 10.0 mi North 12.7 mph - N/A   Mostly Cloudy
2:15 PM 28.4 °F 19.1 °F 12.2 °F 51% 30.36 in 10.0 mi North 10.4 mph - N/A   Overcast
2:35 PM 28.4 °F 18.5 °F 12.2 °F 51% 30.36 in 10.0 mi North 11.5 mph 17.3 mph N/A   Overcast
2:55 PM 28.4 °F 18.0 °F 12.2 °F 51% 30.36 in 10.0 mi North 12.7 mph - N/A   Mostly Cloudy
3:15 PM 28.4 °F 19.1 °F 10.4 °F 47% 30.37 in 10.0 mi North 10.4 mph - N/A   Scattered Clouds
3:35 PM 28.4 °F 17.0 °F 10.4 °F 47% 30.37 in 10.0 mi North 15.0 mph - N/A   Clear
3:55 PM 26.6 °F 16.8 °F 8.6 °F 47% 30.37 in 10.0 mi NNW 10.4 mph - N/A   Clear
4:15 PM 26.6 °F 14.7 °F 6.8 °F 43% 30.38 in 10.0 mi North 15.0 mph - N/A   Clear
4:35 PM 24.8 °F 14.0 °F 6.8 °F 46% 30.38 in 10.0 mi North 11.5 mph - N/A   Clear
4:55 PM 23.0 °F 13.1 °F 5.0 °F 46% 30.39 in 10.0 mi North 9.2 mph - N/A   Clear
5:15 PM 21.2 °F 12.6 °F 6.8 °F 54% 30.39 in 10.0 mi North 6.9 mph - N/A   Clear
5:35 PM 21.2 °F 10.9 °F 6.8 °F 54% 30.39 in 10.0 mi North 9.2 mph - N/A   Clear
5:55 PM 19.4 °F 10.4 °F 6.8 °F 58% 30.39 in 10.0 mi NNW 6.9 mph - N/A   Clear
6:15 PM 19.4 °F 10.4 °F 6.8 °F 58% 30.40 in 10.0 mi North 6.9 mph - N/A   Clear
6:35 PM 19.4 °F 9.5 °F 6.8 °F 58% 30.41 in 10.0 mi NNW 8.1 mph - N/A   Clear
6:55 PM 19.4 °F 10.4 °F 6.8 °F 58% 30.41 in 10.0 mi NNW 6.9 mph - N/A   Clear
7:15 PM 17.6 °F 8.2 °F 6.8 °F 63% 30.41 in 10.0 mi NNW 6.9 mph - N/A   Clear
7:35 PM 17.6 °F 7.3 °F 6.8 °F 63% 30.42 in 10.0 mi NNW 8.1 mph - N/A   Clear
7:55 PM 19.4 °F 10.4 °F 6.8 °F 58% 30.42 in 10.0 mi North 6.9 mph - N/A   Clear
8:15 PM 17.6 °F 8.2 °F 6.8 °F 63% 30.42 in 10.0 mi North 6.9 mph - N/A   Clear
8:35 PM 17.6 °F 9.3 °F 6.8 °F 63% 30.42 in 10.0 mi NNW 5.8 mph - N/A   Clear
8:55 PM 17.6 °F 10.7 °F 6.8 °F 63% 30.42 in 10.0 mi North 4.6 mph - N/A   Clear
9:15 PM 17.6 °F 12.3 °F 5.0 °F 58% 30.42 in 10.0 mi North 3.5 mph - N/A   Clear
9:35 PM 17.6 °F - 5.0 °F 58% 30.43 in 10.0 mi Calm Calm - N/A   Clear
9:55 PM 17.6 °F 9.3 °F 6.8 °F 63% 30.43 in 10.0 mi NNW 5.8 mph - N/A   Clear
10:15 PM 15.8 °F 10.2 °F 6.8 °F 68% 30.43 in 10.0 mi NNW 3.5 mph - N/A   Clear
10:55 PM 17.6 °F 10.7 °F 5.0 °F 58% 30.43 in 10.0 mi North 4.6 mph - N/A   Clear
11:15 PM 14.0 °F - 5.0 °F 67% 30.43 in 10.0 mi Calm Calm - N/A   Clear
11:35 PM 12.2 °F - 5.0 °F 73% 30.43 in 10.0 mi Calm Calm - N/A   Clear
11:55 PM 12.2 °F - 6.8 °F 79% 30.42 in 10.0 mi Calm Calm - N/A   Clear